Regional Weather Roundup
Issued by NWS

Home | Current Version | Previous Version | Graphics & Text | Print | Product List | Glossary On
Versions: 1 2 3 4 5 6 7 8 9 10 11 12 13 14 15 16 17 18 19 20 21 22 23 24 25 26 27 28 29 30 31 32 33 34 35 36 37 38 39 40 41 42 43 44 45 46 47 48 49 50
000
ASUS43 KMKX 281011
RWRWI

WISCONSIN REGIONAL WEATHER ROUNDUP
NATIONAL WEATHER SERVICE MILWAUKEE/SULLIVAN WI
500 AM CDT TUE MAR 28 2017

NOTE: "FAIR" INDICATES FEW OR NO CLOUDS BELOW 12,000 FEET WITH NO
SIGNIFICANT WEATHER AND/OR OBSTRUCTIONS TO VISIBILITY.

WIZ001-002-006>008-014>016-023>028-281100-
NORTHWEST WISCONSIN

CITY           SKY/WX    TMP DP  RH WIND       PRES   REMARKS
SUPERIOR ARPT  CLEAR     26  25  98 CALM      30.11R
ASHLAND        CLEAR     25  23  92 CALM      30.10R
HAYWARD        CLEAR     27  24  89 CALM      30.09R
SIREN          CLEAR     27  26  96 CALM      30.09S
CUMBERLAND     CLEAR     28  28 100 N5        30.08R WCI  23
RICE LAKE      CLEAR     28  28  99 CALM      30.09R
CHETEK         CLEAR     27  27  99 CALM      30.09R
LADYSMITH      CLEAR     28  27  96 NE5       30.09R WCI  22
EAU CLAIRE     FOG       29  28  96 CALM      30.08R VSB 1/4
MENOMONIE        N/A     29  29  99 CALM      30.08S FOG
NEW RICHMOND   CLEAR     30  30 100 CALM      30.09R FOG
OSCEOLA        CLEAR     30  30 100 CALM      30.11R
$$

WIZ003>005-009-010-017-018-281100-
NORTH CENTRAL WISCONSIN

CITY           SKY/WX    TMP DP  RH WIND       PRES   REMARKS
MANITOWISH WTR CLEAR     23  23 100 CALM      30.06S
ARBOR VITAE    CLEAR     25  24  95 N3        30.06R
WOODRUFF       CLEAR     25  24  95 N3        30.06R
RHINELANDER    CLEAR     26  24  92 CALM      30.07R
EAGLE RIVER    CLEAR     24  24 100 CALM      30.06R
LAND O LAKES   CLEAR     23  22  96 CALM      30.08R
PHILLIPS       CLEAR     23  22  99 CALM      30.06R
TOMAHAWK       CLEAR     23  22  96 CALM      30.07R
MEDFORD        CLEAR     28  28  99 CALM      30.06R
MERRILL        CLEAR     24  24 100 CALM      30.08R
$$

WIZ029-030-035-036-043>047-281100-
CENTRAL WISCONSIN

CITY           SKY/WX    TMP DP  RH WIND       PRES   REMARKS
WAUSAU         PTCLDY    28  27  96 NW3       30.05R
MOSINEE        CLOUDY    34  34 100 CALM      30.07R
MARSHFIELD     FOG       30  28  92 N5        30.05R VSB 1/2 WCI  25
STEVENS POINT  CLOUDY    37  37  99 CALM      30.06R
WAUPACA        CLOUDY    42  38  85 CALM      30.06R
WAUTOMA        CLOUDY    41  37  86 NE3       30.07R
WISC RAPIDS    CLOUDY    40  38  93 N3        30.07R
CAMP DOUGLAS   CLOUDY    42  38  89 CALM      30.06R
$$

WIZ011>013-019>022-031-037>040-048>050-281100-
NORTHEAST WISCONSIN

CITY           SKY/WX    TMP DP  RH WIND       PRES   REMARKS
ANTIGO         FOG       27  27 100 N5        30.06R VSB 1   WCI  22
SHAWANO        FOG       32  31  96 CALM      30.07R VSB 1
OCONTO         PTCLDY    28  28  99 CALM      30.07R
STURGEON BAY   CLEAR     32  31  96 NW3       30.04R
GREEN BAY      CLEAR     34  34 100 NW3       30.06R
MANITOWOC      CLOUDY    39  36  89 N6        30.06R WCI  35
APPLETON       CLEAR     34  34 100 N5        30.03F WCI  30
CLINTONVILLE   FOG       32  32 100 CALM      30.06S VSB 1/2
OSHKOSH        PTCLDY    36  34  92 N6        30.05R WCI  31
$$

WIZ032>034-041-042-053>061-281100-
SOUTHWEST WISCONSIN

CITY           SKY/WX    TMP DP  RH WIND       PRES   REMARKS
LA CROSSE      MOCLDY    36  34  92 NW7       30.08R WCI  30
SPARTA         CLOUDY    40  38  94 CALM      30.08R
VIROQUA        CLOUDY    40  40  99 CALM      30.06R
BOSCOBEL       CLOUDY    45  41  86 CALM      30.06R
PRAIRIE DU CHI CLOUDY    44  42  91 CALM      30.06R
PLATTEVILLE    CLOUDY    45  45 100 N7        30.04R
$$

WIZ056-057-062-063-064-067-068-281100-
SOUTH CENTRAL WISCONSIN

CITY           SKY/WX    TMP DP  RH WIND       PRES   REMARKS
REEDSBURG      CLOUDY    40  40 100 NE5       30.06R FOG
BARABOO/DELLS  CLOUDY    40  39  97 E7        30.06R FOG     WCI  35
LONE ROCK      CLOUDY    44  41  89 NE6       30.06R
MINERAL POINT  FOG       45  45 100 NE6       30.04R VSB 1/2
MADISON        CLOUDY    41  38  89 NE8       30.05R
MIDDLETON      CLOUDY    42  42 100 NE5       30.05R
WATERTOWN      CLOUDY    40  38  94 NE3       30.04R
MONROE         FOG       43  41  93 NE7       30.03R VSB 1/4
JANESVILLE     CLOUDY    43  41  93 NE6       30.04R
$$

WIZ051-052-058>065-066-070>072-281100-
SOUTHEAST WISCONSIN

CITY           SKY/WX    TMP DP  RH WIND       PRES   REMARKS
MILWAUKEE      CLOUDY    40  35  83 N12       30.04R WCI  33
WAUKESHA       CLOUDY    36  34  93 N6        30.04R WCI  31
MILWAUKEE/TIMM CLOUDY    37  34  87 N6        30.05R WCI  33
RACINE         CLOUDY    39  34  82 N12       30.04S WCI  32
KENOSHA        CLOUDY    39  35  86 N8        30.03R WCI  33
FOND DU LAC    CLEAR     37  34  89 NE5       30.05R WCI  33
SHEBOYGAN      CLOUDY    39  36  89 N7        30.04S WCI  34
WEST BEND      CLOUDY    37  36  93 N3        30.04S
JUNEAU         CLOUDY    39  37  93 CALM      30.05S
$$

LSZ147-162-281100-
LAKE SUPERIOR

STATION/POSITION TIME  TEMP    WIND        PRES    WAVE
                       AIR SEA DIR/SP/G            HT/PER
                 (UTC) (F)     (DEG/KT/KT) (MB)    (FT/S)
DEVILS ISLAND    1000   34     220/  7/  7 1020.0R
PORT WING        0940   26     160/  3/  4 1019.3S
SAXON HARBOR     0930   28     200/  6/  8 1018.6S
$$

LMZ867-665-643>646-281100-
LAKE MICHIGAN

STATION/POSITION TIME  TEMP    WIND        PRES    WAVE
                       AIR SEA DIR/SP/G            HT/PER
                 (UTC) (F)     (DEG/KT/KT) (MB)    (FT/S)
CHAMBERS ISLAND  0940   32     300/  3/  6 1017.6R
NORTHPORT PIER   0940   33     300/  5/  6 1017.6R
SISTER BAY       0936   30        CALM       N/A
KEWAUNEE LAKESHO 0948   36     330/  2/  5 1017.3R
SHEBOYGAN LAKESH 1000   40     330/  8/  9 1017.7R
PORT WASHINGTON  0940   40     340/  3/  6 1018.3R
MILWAUKEE LAKESH 0950   39      10/  7/  8   N/A
KENOSHA   LAKESH 1000   39     360/ 12/ 16 1017.3
$$

TC  - TEMPERATURE IN CELSIUS
VSB - VISIBILITY IN STATUTE MILES
WCI - WIND CHILL INDEX
HX  - HEAT INDEX





USA.gov is the U.S. government's official web portal to all federal, state and local government web resources and services.